Showing default

ION SCV-011, 56957

Orbit data source: Space-Track

ION SCV-011, 56957 is a payload satellite owned by D-ORBIT (IT) in SSO that was launched on Mon, 12 Jun 2023 UTC via an FALCON 9 launch vehicle from the Air Force Western Test Range (AFWTR). Payload-class satellites include a variety of spacecraft equipped with specific instruments for various scientific and technological missions. These include communications satellites like Starlink; space stations such as the ISS; scientific satellites like the Hubble; Earth observation satellites from companies like Planet Labs, Umbra, and HawkEye 360; GPS; miniature CubeSats for education and research; and military/defense satellites.

Loading next visibility...
Identifier
56957, 2023-084AB
Orbit
SSO
Country
Flag of ITIT
Related business
Manufacturer
D-ORBIT
Mission
Operational Commercial Technology
Bus & Motor
ION-SC, PM200
Mass
220 kg wet, 150 kg dry
Launch date (UTC)
2023-06-12 (3 years ago)
Launch vehicle
FALCON 9
Launch site
Air Force Western Test Range (AFWTR)
Object type
Payload
Rocket body
Debris
Shape & HBR
Box, 0.2 m
Radar Cross Section
0.240 m², Large (>1 m²)

Expand to show TLE details & history
Last TLE update: 1 day ago

TLE from 1 day ago
0 ION SCV-011
1 56957U 23084AB  26206.48120559  .00005063  00000-0  18187-3 0  9991
2 56957  98.1381  37.3198 0005788 261.5727  98.4855 15.29179081171666
Epoch: 2026-07-25T11:32Z
TLE epoch observation values (Epoch: 2026-07-25T11:32:56.162Z)
Latitude
-0.00005°
Longitude
-79.10707°
Altitude
481.934 km
Speed
7.624 km/s
True Right ascension
02h 29m 16s
True Declination
0° 00' 00"
Sunlit
Object was in daylight at epoch
Visualization orbit readout
Latitude
Unknown
Longitude
Unknown
Altitude
Unknown
Speed
Unknown
Apparent Right ascension
Unknown
Apparent Declination
Unknown
Sunlit
N/A
Visualization observer readout
Local Sidereal Time
00:59:32
Azimuth
Unknown
Elevation
Unknown
Doppler factor
Unknown
Orbital elements
Apogee altitude
479.218 km
Perigee altitude
471.285 km
Semi-major axis
6,853.389 km
Eccentricity
0.00058
Inclination
98.1381°
RAAN
37.3198°
Arg. of periapsis
261.5727°
True anomaly
98.55109°
Mean anomaly
98.4855°
Eccentric anomaly
98.5183°
Mean motion
3.82547 °/min
Orbital period
94.11 mins
BSTAR
0.00018187
Loading maneuver chart data...
Computing Atmospheric mass density...
Loading historical data...
Loading historical data...
Loading historical data...
Loading historical data...
Loading historical data...
Loading historical data...
Loading historical data...

Documentation

Showing up to 5 results
|